TimeCDT,TemperatureF,Dew PointF,Humidity,Sea Level PressureIn,VisibilityMPH,Wind Direction,Wind SpeedMPH,Gust SpeedMPH,PrecipitationIn,Events,Conditions,WindDirDegrees,DateUTC
12:54 AM,73.0,62.1,68,29.84,10.0,SE,5.8,-,N/A,,Clear,140,2013-08-31 05:54:00
1:54 AM,75.0,61.0,62,29.80,10.0,South,8.1,-,N/A,,Clear,170,2013-08-31 06:54:00
2:54 AM,73.9,62.1,66,29.82,10.0,SSW,6.9,-,N/A,,Clear,200,2013-08-31 07:54:00
3:54 AM,75.0,63.0,66,29.82,10.0,SSW,9.2,-,N/A,,Clear,200,2013-08-31 08:54:00
4:54 AM,73.0,64.0,73,29.81,10.0,SSW,4.6,-,N/A,,Clear,200,2013-08-31 09:54:00
5:54 AM,75.9,64.0,67,29.81,10.0,SSW,6.9,-,N/A,,Clear,210,2013-08-31 10:54:00
6:54 AM,75.0,69.1,82,29.82,10.0,SSW,5.8,-,N/A,,Clear,210,2013-08-31 11:54:00
7:54 AM,79.0,71.1,77,29.81,10.0,SSW,8.1,-,N/A,,Clear,210,2013-08-31 12:54:00
8:54 AM,82.9,72.0,69,29.81,10.0,SW,9.2,-,N/A,,Clear,230,2013-08-31 13:54:00
9:54 AM,84.0,72.0,67,29.82,10.0,SW,6.9,-,N/A,,Clear,230,2013-08-31 14:54:00
10:54 AM,90.0,73.0,57,29.81,10.0,WSW,10.4,-,N/A,,Clear,240,2013-08-31 15:54:00
11:54 AM,91.9,73.9,55,29.79,10.0,SW,9.2,-,N/A,,Clear,230,2013-08-31 16:54:00
12:54 PM,93.9,73.9,52,29.78,10.0,SSW,12.7,-,N/A,,Clear,200,2013-08-31 17:54:00
1:54 PM,95.0,73.9,50,29.76,10.0,South,11.5,-,N/A,,Clear,190,2013-08-31 18:54:00
2:54 PM,96.1,73.0,47,29.74,10.0,SW,11.5,-,N/A,,Clear,220,2013-08-31 19:54:00
3:54 PM,97.0,72.0,44,29.72,10.0,WSW,15.0,-,N/A,,Partly Cloudy,250,2013-08-31 20:54:00
4:54 PM,93.0,73.0,52,29.71,10.0,WNW,9.2,-,0.00,,Scattered Clouds,300,2013-08-31 21:54:00
5:54 PM,93.0,73.9,54,29.71,10.0,NW,8.1,-,N/A,,Scattered Clouds,310,2013-08-31 22:54:00
6:54 PM,91.0,73.9,57,29.73,10.0,NW,6.9,-,N/A,,Scattered Clouds,320,2013-08-31 23:54:00
7:54 PM,84.0,69.1,61,29.74,10.0,NNW,8.1,-,N/A,,Clear,340,2013-09-01 00:54:00
8:54 PM,79.0,69.1,72,29.73,10.0,North,6.9,-,N/A,,Clear,350,2013-09-01 01:54:00
9:54 PM,75.9,70.0,82,29.76,10.0,Calm,Calm,-,N/A,,Clear,0,2013-09-01 02:54:00
10:54 PM,75.0,70.0,84,29.78,10.0,North,8.1,-,N/A,,Clear,350,2013-09-01 03:54:00
11:54 PM,73.9,70.0,87,29.78,9.0,North,8.1,-,N/A,,Clear,360,2013-09-01 04:54:00